Home > Weather > Chișinău > Past weeks

Flag for Moldova Past Weather in Chișinău, Moldova — Yesterday and Last 2 Weeks

Now
88 °F

Scattered clouds.


Feels Like: 87 °F
Forecast: 65 / 89 °F
Wind: 9 mph from East

Location: Chisinau International Airport

Current Time: Jul 26, 2016 at 3:16:48 PM

Latest Report: Jul 26, 2016 at 2:30 PM


Visibility: N/A

Pressure: 29.98 "Hg

Humidity: 35%

Dew Point: 57 °F

Location of ChișinăuLocation

Past Weather in Chișinău — Graph

°F

Chișinău Temperature Yesterday

Maximum temperature yesterday: 88 °F (at 3:00 PM)
Minimum temperature yesterday: 61 °F (at 4:30 AM)
Average temperature yesterday: 76 °F

High & Low Weather Summary for the Past Weeks

 TemperatureHumidityPressure
High95 °F (Jul 17, 3:30 PM)94% (Jul 13, 5:00 AM)30.07 "Hg (Jul 13, 5:00 AM)
Low54 °F (Jul 21, 5:30 AM)26% (Jul 22, 3:00 PM)29.71 "Hg (Jul 17, 4:30 PM)
Average74 °F59%29.91 "Hg
* Reported Jul 11 2:00 PM — Jul 26 2:00 PM, Chișinău, Weather by CustomWeather, © 2016

Note: Actual official high and low records may vary slightly from our data, if they occured in-between our weather recording intervals... More about our weather records

Advertising

Chișinău Weather History for the Previous 24 Hours

Scroll right to see more
 ConditionsComfort  
Time TempWeatherWind HumidityBarometerVisibility
2:00 PM
Tue, Jul 26
86 °FScattered clouds.9 mph40%30.01 "HgN/A
1:30 PM88 °FScattered clouds.9 mph40%30.01 "HgN/A
1:00 PM86 °FPassing clouds.10 mph46%30.01 "HgN/A
12:30 PM86 °FPassing clouds.8 mph46%30.01 "HgN/A
12:00 PM84 °FPassing clouds.10 mph48%30.01 "HgN/A
11:30 AM84 °FPassing clouds.9 mph45%30.01 "Hg5 mi
11:00 AM82 °FClear.7 mph51%30.01 "Hg5 mi
10:30 AM81 °FClear.6 mph54%30.01 "Hg5 mi
10:00 AM79 °FClear.5 mph58%30.01 "Hg5 mi
9:30 AM77 °FClear.3 mph61%30.01 "Hg5 mi
9:00 AM75 °FClear.3 mph65%30.01 "Hg4 mi
8:30 AM73 °FClear.2 mph65%30.01 "Hg4 mi
8:00 AM72 °FClear.3 mph69%30.01 "Hg6 mi
7:30 AM70 °FClear.1 mph78%30.01 "Hg6 mi
7:00 AM66 °FClear.No wind83%30.01 "Hg4 mi
6:30 AM68 °FClear.5 mph78%30.01 "Hg6 mi
6:00 AM66 °FClear.No wind83%30.01 "Hg4 mi
5:30 AM64 °FClear.No wind88%30.01 "Hg4 mi
5:00 AM64 °FClear.2 mph83%30.01 "Hg10 mi
4:30 AM66 °FClear.5 mph78%30.01 "Hg10 mi
4:00 AM68 °FClear.6 mph78%30.01 "Hg10 mi
3:30 AM68 °FClear.6 mph78%30.01 "Hg10 mi
3:00 AM68 °FClear.2 mph78%30.01 "Hg10 mi
2:30 AM68 °FClear.2 mph73%30.01 "Hg10 mi
2:00 AM70 °FClear.6 mph73%30.01 "Hg10 mi
1:30 AM70 °FClear.5 mph69%30.01 "Hg10 mi
1:00 AM75 °FPassing clouds.6 mph61%30.01 "HgN/A
12:30 AM72 °FClear.2 mph65%30.01 "Hg10 mi
12:00 AM73 °FClear.No wind61%30.01 "Hg10 mi
11:30 PM
Mon, Jul 25
75 °FPassing clouds.3 mph57%29.98 "HgN/A
11:00 PM75 °FClear.2 mph57%29.98 "Hg10 mi
10:30 PM75 °FClear.5 mph57%29.98 "Hg10 mi
10:00 PM79 °FClear.6 mph51%29.98 "Hg10 mi
9:30 PM79 °FSunny.5 mph51%29.98 "Hg10 mi
9:00 PM79 °FSunny.6 mph51%29.98 "Hg10 mi
8:30 PM82 °FSunny.6 mph48%29.95 "Hg10 mi
8:00 PM82 °FSunny.7 mph45%29.95 "Hg10 mi
7:30 PM84 °FSunny.8 mph43%29.95 "Hg10 mi
7:00 PM86 °FSunny.9 mph40%29.95 "Hg10 mi
6:30 PM86 °FPassing clouds.8 mph40%29.95 "HgN/A
6:00 PM88 °FSunny.9 mph38%29.95 "Hg10 mi
5:30 PM86 °FSunny.9 mph40%29.95 "Hg10 mi
5:00 PM88 °FPassing clouds.9 mph38%29.95 "HgN/A
4:30 PM88 °FSunny.10 mph38%29.98 "Hg10 mi
4:00 PM86 °FSunny.12 mph43%29.98 "Hg10 mi
3:30 PM88 °FSunny.12 mph38%29.98 "Hg10 mi
3:00 PM88 °FSunny.6 mph38%29.98 "Hg10 mi
Weather by CustomWeather, © 2016

See weather overviewHow to use our weather pages